Flight Track Log - Related Links

Times and Time Zones

All times are in EDT time to prevent confusion due to time zone crossing. See the NKS562 flight status page for this flight to view local times or setup timezone preferences in your user account.


Time Position Orientation Groundspeed Altitude Reporting Facility
EDT Latitude Longitude Course Direction KTS MPH feet Rate Location/Type
Mon 11:34:17 AM 36.0760 -115.1700 270° West 165 190 3,200  Level FlightAware ADS-B
Mon 11:34:47 AM 36.0770 -115.1980 273° West 180 207 4,100 1,500 Climbing FlightAware ADS-B
Mon 11:35:17 AM 36.0770 -115.2330 270° West 218 251 4,700 1,700 Climbing FlightAware ADS-B
Mon 11:35:47 AM 36.0820 -115.2740 279° West 243 280 5,800 2,250 Climbing FlightAware ADS-B
Mon 11:35:57 AM 36.0880 -115.2830 310° West 246 283 6,200 2,880 Climbing FlightAware ADS-B
Mon 11:36:12 AM 36.1050 -115.2920 337° Northwest 246 283 7,000 3,150 Climbing FlightAware ADS-B
Mon 11:36:37 AM 36.1330 -115.2980 350° North 248 285 8,300 3,067 Climbing FlightAware ADS-B
Mon 11:36:57 AM 36.1540 -115.2880 21° North 255 293 9,300 2,700 Climbing FlightAware ADS-B
Mon 11:37:37 AM 36.1810 -115.2380 56° Northeast 277 319 11,000 1,875 Climbing FlightAware ADS-B
Mon 11:38:17 AM 36.1970 -115.1730 73° East 330 380 11,800 1,553 Climbing FlightAware ADS-B
Mon 11:39:02 AM 36.1970 -115.0780 90° East 365 420 13,200 2,259 Climbing FlightAware ADS-B
Mon 11:39:42 AM 36.1980 -114.9950 89° East 374 430 15,000 2,541 Climbing FlightAware ADS-B
Mon 11:40:27 AM 36.1990 -114.8980 89° East 389 448 16,800 2,329 Climbing FlightAware ADS-B
Mon 11:41:07 AM 36.2000 -114.8070 89° East 403 464 18,300 2,337 Climbing FlightAware ADS-B
Mon 11:42:02 AM 36.2000 -114.6800 90° East 412 474 20,500 2,400 Climbing FlightAware ADS-B
Mon 11:42:47 AM 36.1980 -114.5730 91° East 414 476 22,300 2,118 Climbing FlightAware ADS-B
Mon 11:43:27 AM 36.1970 -114.4750 91° East 425 489 23,500 1,725 Climbing FlightAware ADS-B
Mon 11:44:07 AM 36.1960 -114.3790 91° East 434 499 24,600 2,100 Climbing FlightAware ADS-B
Mon 11:44:47 AM 36.1940 -114.2800 91° East 429 494 26,300 1,976 Climbing FlightAware ADS-B
Mon 11:45:32 AM 36.2030 -114.1670 84° East 436 502 27,400 1,412 Climbing FlightAware ADS-B
Mon 11:46:12 AM 36.2150 -114.0690 81° East 442 509 28,300 1,341 Climbing FlightAware ADS-B
Mon 11:46:57 AM 36.2280 -113.9570 82° East 450 518 29,300 1,271 Climbing FlightAware ADS-B
Mon 11:47:37 AM 36.2400 -113.8530 82° East 457 526 30,100 1,275 Climbing FlightAware ADS-B
Mon 11:48:17 AM 36.2520 -113.7500 82° East 459 528 31,000 1,482 Climbing FlightAware ADS-B
Mon 11:49:02 AM 36.2660 -113.6320 82° East 457 526 32,200 1,553 Climbing FlightAware ADS-B
Mon 11:49:42 AM 36.2780 -113.5270 82° East 456 525 33,200 1,482 Climbing FlightAware ADS-B
Mon 11:50:27 AM 36.2910 -113.4150 82° East 451 519 34,300 1,200 Climbing FlightAware ADS-B
Mon 11:51:07 AM 36.3020 -113.3120 82° East 454 522 34,900 525 Climbing FlightAware ADS-B
Mon 11:51:47 AM 36.3180 -113.2080 79° East 449 517 35,000 71 Climbing FlightAware ADS-B
Mon 11:52:32 AM 36.3580 -113.1030 65° Northeast 447 514 35,000  Level FlightAware ADS-B
Mon 11:53:12 AM 36.3900 -113.0160 65° Northeast 450 518 35,000 494 Level FlightAware ADS-B
Mon 11:53:57 AM 36.4300 -112.9070 65° Northeast 449 517 35,700 1,059 Climbing FlightAware ADS-B
Mon 11:54:37 AM 36.4640 -112.8140 66° East 446 513 36,500 1,125 Climbing FlightAware ADS-B
Mon 11:55:17 AM 36.4990 -112.7210 65° Northeast 447 514 37,200 988 Climbing FlightAware ADS-B
Mon 11:56:02 AM 36.5380 -112.6130 66° East 445 512 37,900 918 Climbing FlightAware ADS-B
Mon 11:56:42 AM 36.5730 -112.5190 65° Northeast 445 512 38,500 776 Climbing FlightAware ADS-B
Mon 11:57:27 AM 36.6090 -112.4190 66° East 443 510 39,000 353 Climbing FlightAware ADS-B
Mon 11:58:07 AM 36.6430 -112.3270 65° Northeast 438 504 39,000  Level FlightAware ADS-B
Mon 11:59:02 AM 36.6870 -112.2070 65° Northeast 441 507 39,000  Level FlightAware ADS-B
Mon 11:59:42 AM 36.7160 -112.1290 65° Northeast 441 507 39,000  Level FlightAware ADS-B
Mon 12:00:22 PM 36.7450 -112.0510 65° Northeast 441 507 39,000  Level FlightAware ADS-B
Mon 12:01:02 PM 36.7750 -111.9720 65° Northeast 441 507 39,000  Level FlightAware ADS-B
Mon 12:01:52 PM 36.8110 -111.8740 65° Northeast 441 507 39,000  Level FlightAware ADS-B
Mon 12:02:32 PM 36.8410 -111.7950 65° Northeast 441 507 39,000  Level FlightAware ADS-B
Mon 12:03:12 PM 36.8700 -111.7170 65° Northeast 441 507 39,000  Level FlightAware ADS-B
Mon 12:03:52 PM 36.8990 -111.6380 65° Northeast 441 507 39,000  Level FlightAware ADS-B
Mon 12:04:32 PM 36.9290 -111.5600 64° Northeast 441 507 39,000  Level FlightAware ADS-B
Mon 12:05:22 PM 36.9650 -111.4610 66° East 441 507 39,000  Level FlightAware ADS-B
Mon 12:06:02 PM 36.9950 -111.3830 64° Northeast 441 507 39,000  Level FlightAware ADS-B
Mon 12:06:42 PM 37.0240 -111.3040 65° Northeast 441 507 39,000  Level FlightAware ADS-B
Mon 12:07:22 PM 37.0530 -111.2250 65° Northeast 441 507 39,000  Level FlightAware ADS-B
Mon 12:08:02 PM 37.0830 -111.1460 65° Northeast 441 507 39,000  Level FlightAware ADS-B
Mon 12:08:34 PM 37.1575 -110.8747 65° Northeast 438 504 39,000  Level Denver Center
Mon 12:09:36 PM 37.2122 -110.7167 66° East 436 502 39,000  Level Denver Center
Mon 12:10:38 PM 37.2592 -110.5825 66° East 438 504 39,000  Level Denver Center
Mon 12:11:40 PM 37.3136 -110.4264 66° East 438 504 39,000  Level Denver Center
Mon 12:12:42 PM 37.3614 -110.2906 66° East 441 507 39,000  Level Denver Center
Mon 12:13:44 PM 37.4142 -110.1264 68° East 447 514 39,000  Level Denver Center
Mon 12:14:46 PM 37.4603 -109.9886 67° East 446 513 39,000  Level Denver Center
Mon 12:15:48 PM 37.5144 -109.8297 67° East 443 510 39,000  Level Denver Center
Mon 12:16:50 PM 37.5589 -109.6939 68° East 440 506 39,000  Level Denver Center
Mon 12:17:52 PM 37.6033 -109.5583 67° East 437 503 39,000  Level Denver Center
Mon 12:18:54 PM 37.6561 -109.3986 67° East 439 505 39,000  Level Denver Center
Mon 12:19:56 PM 37.7006 -109.2631 67° East 438 504 39,000  Level Denver Center
Mon 12:20:58 PM 37.7525 -109.1042 67° East 436 502 39,000  Level Denver Center
Mon 12:22:00 PM 37.7972 -108.9686 67° East 433 498 39,000  Level Denver Center
Mon 12:23:02 PM 37.8642 -108.8214 60° Northeast 429 494 39,000  Level Denver Center
Mon 12:24:04 PM 37.9244 -108.6969 58° Northeast 431 496 39,000  Level Denver Center
Mon 12:25:06 PM 37.9950 -108.5503 59° Northeast 435 501 39,000  Level Denver Center
Mon 12:26:08 PM 38.0556 -108.4269 58° Northeast 433 498 39,000 -124 Level Denver Center
Mon 12:31:32 PM 38.4000 -107.7050 58° Northeast 436 502 38,200 -247 Descending FlightAware ADS-B
Mon 12:32:12 PM 38.4430 -107.6140 59° Northeast 439 505 37,500 -960 Descending FlightAware ADS-B
Mon 12:32:47 PM 38.4780 -107.5390 59° Northeast 442 509 37,000 -988 Descending FlightAware ADS-B
Mon 12:33:37 PM 38.5300 -107.4210 61° Northeast 444 511 36,100 -1,032 Descending FlightAware ADS-B
Mon 12:34:20 PM 38.5766 -107.3170 60° Northeast 442 509 35,400 -986 Descending FlightAware ADS-B
Mon 12:34:50 PM 38.6072 -107.2480 60° Northeast 444 511 34,900 -968 Descending FlightAware ADS-B
Mon 12:35:22 PM 38.6389 -107.1770 60° Northeast 443 510 34,400 -968 Descending FlightAware ADS-B
Mon 12:35:52 PM 38.6698 -107.1070 61° Northeast 445 512 33,900 -1,000 Descending FlightAware ADS-B
Mon 12:36:22 PM 38.6970 -107.0450 61° Northeast 448 516 33,400 -1,077 Descending FlightAware ADS-B
Mon 12:36:31 PM 38.7098 -107.0170 60° Northeast 449 517 33,200 -1,050 Descending FlightAware ADS-B
Mon 12:37:02 PM 38.7417 -106.9450 60° Northeast 452 520 32,700 -968 Descending FlightAware ADS-B
Mon 12:37:33 PM 38.7728 -106.8750 60° Northeast 446 513 32,200 -984 Descending FlightAware ADS-B
Mon 12:38:03 PM 38.8040 -106.8060 60° Northeast 441 507 31,700 -984 Descending FlightAware ADS-B
Mon 12:38:34 PM 38.8352 -106.7380 59° Northeast 438 504 31,200 -689 Descending FlightAware ADS-B
Mon 12:39:04 PM 38.8659 -106.6700 60° Northeast 440 506 31,000 -200 Descending FlightAware ADS-B
Mon 12:39:34 PM 38.8975 -106.6010 60° Northeast 444 511 31,000  Level FlightAware ADS-B
Mon 12:40:05 PM 38.9281 -106.5330 60° Northeast 438 504 31,000  Level FlightAware ADS-B
Mon 12:40:35 PM 38.9589 -106.4650 60° Northeast 435 501 31,000  Level FlightAware ADS-B
Mon 12:41:05 PM 38.9892 -106.3980 60° Northeast 430 495 31,000 -98 Level FlightAware ADS-B
Mon 12:41:36 PM 39.0196 -106.3300 60° Northeast 430 495 30,900  Descending FlightAware ADS-B
Mon 12:42:06 PM 39.0497 -106.2630 60° Northeast 429 494 31,000 -100 Climbing FlightAware ADS-B
Mon 12:42:36 PM 39.0794 -106.1970 60° Northeast 428 493 30,800 -689 Descending FlightAware ADS-B
Mon 12:43:07 PM 39.1093 -106.1300 60° Northeast 426 490 30,300 -1,377 Descending FlightAware ADS-B
Mon 12:43:37 PM 39.1391 -106.0630 60° Northeast 427 491 29,400 -1,800 Descending FlightAware ADS-B
Mon 12:44:07 PM 39.1682 -105.9970 60° Northeast 419 482 28,500 -1,770 Descending FlightAware ADS-B
Mon 12:44:38 PM 39.1977 -105.9310 60° Northeast 412 474 27,600 -1,742 Descending FlightAware ADS-B
Mon 12:45:09 PM 39.2260 -105.8670 60° Northeast 403 464 26,700 -1,869 Descending FlightAware ADS-B
Mon 12:45:39 PM 39.2538 -105.8040 60° Northeast 401 461 25,700 -2,000 Descending FlightAware ADS-B
Mon 12:46:09 PM 39.2813 -105.7410 61° Northeast 399 459 24,700 -2,066 Descending FlightAware ADS-B
Mon 12:46:40 PM 39.3092 -105.6780 60° Northeast 394 453 23,600 -2,066 Descending FlightAware ADS-B
Mon 12:47:10 PM 39.3358 -105.6180 60° Northeast 382 440 22,600 -1,770 Descending FlightAware ADS-B
Mon 12:47:41 PM 39.3625 -105.5570 60° Northeast 369 425 21,800 -1,161 Descending FlightAware ADS-B
Mon 12:48:12 PM 39.3870 -105.5010 60° Northeast 346 398 21,400 -545 Descending FlightAware ADS-B
Mon 12:48:25 PM 39.3976 -105.4770 60° Northeast 331 381 21,400 -558 Level FlightAware ADS-B
Mon 12:48:55 PM 39.4234 -105.4290 55° Northeast 320 368 21,000 -1,672 Descending FlightAware ADS-B
Mon 12:49:26 PM 39.4490 -105.3800 56° Northeast 330 380 19,700 -1,475 Descending FlightAware ADS-B
Mon 12:49:56 PM 39.4744 -105.3310 56° Northeast 316 364 19,500 -750 Descending FlightAware ADS-B
Mon 12:50:30 PM 39.5014 -105.2800 56° Northeast 299 344 18,900 -1,600 Descending FlightAware ADS-B
Mon 12:50:56 PM 39.5217 -105.2400 57° Northeast 311 358 17,900 -1,607 Descending FlightAware ADS-B
Mon 12:51:26 PM 39.5457 -105.1950 55° Northeast 300 345 17,400 -800 Descending FlightAware ADS-B
Mon 12:51:56 PM 39.5691 -105.1520 55° Northeast 303 349 17,100 -400 Descending FlightAware ADS-B
Mon 12:52:26 PM 39.5938 -105.1050 56° Northeast 318 366 17,000  Descending FlightAware ADS-B
Mon 12:52:56 PM 39.6186 -105.0590 55° Northeast 310 357 17,100 100 Climbing FlightAware ADS-B
Mon 12:53:26 PM 39.6427 -105.0160 54° Northeast 288 331 17,100 -677 Level FlightAware ADS-B
Mon 12:53:58 PM 39.6663 -104.9700 56° Northeast 287 330 16,400 -1,292 Descending FlightAware ADS-B
Mon 12:54:31 PM 39.6896 -104.9240 57° Northeast 276 318 15,700 -1,238 Descending FlightAware ADS-B
Mon 12:55:01 PM 39.7107 -104.8810 57° Northeast 278 320 15,100 -590 Descending FlightAware ADS-B
Mon 12:55:32 PM 39.7321 -104.8380 57° Northeast 284 327 15,100  Level FlightAware ADS-B
Mon 12:55:45 PM 39.7410 -104.8200 57° Northeast 286 329 15,100  Level FlightAware ADS-B
Mon 12:55:50 PM 39.7440 -104.8100 69° East 291 335 15,100  Level FlightAware ADS-B
Mon 12:55:54 PM 39.7450 -104.8050 75° East 293 337 15,100  Level FlightAware ADS-B
Mon 12:56:00 PM 39.7458 -104.7930 85° East 296 341 15,100  Level FlightAware ADS-B
Mon 12:56:05 PM 39.7451 -104.7840 96° East 299 344 15,100  Level FlightAware ADS-B
Mon 12:56:19 PM 39.7416 -104.7610 101° East 300 345 15,100  Level FlightAware ADS-B
Mon 12:56:49 PM 39.7327 -104.7080 102° East 294 338 15,100  Level FlightAware ADS-B
Mon 12:56:57 PM 39.7310 -104.6930 98° East 290 334 15,100 -900 Level FlightAware ADS-B
Mon 12:57:29 PM 39.7280 -104.6380 94° East 290 334 14,500 -1,065 Descending FlightAware ADS-B
Mon 12:57:59 PM 39.7257 -104.5860 93° East 287 330 14,000 -1,102 Descending FlightAware ADS-B
Mon 12:58:18 PM 39.7246 -104.5530 92° East 285 328 13,600 -1,250 Descending FlightAware ADS-B
Mon 12:58:23 PM 39.7254 -104.5460 82° East 283 326 13,500 -1,500 Descending FlightAware ADS-B
Mon 12:58:26 PM 39.7265 -104.5410 74° East 282 325 13,400 -2,250 Descending FlightAware ADS-B
Mon 12:58:31 PM 39.7289 -104.5330 69° East 276 318 13,200 -1,500 Descending FlightAware ADS-B
Mon 12:58:38 PM 39.7337 -104.5240 55° Northeast 269 310 13,100 -923 Descending FlightAware ADS-B
Mon 12:58:44 PM 39.7387 -104.5170 47° Northeast 264 304 13,000 -1,333 Descending FlightAware ADS-B
Mon 12:58:47 PM 39.7419 -104.5150 26° Northeast 263 303 12,900 -1,636 Descending FlightAware ADS-B
Mon 12:58:55 PM 39.7509 -104.5090 27° Northeast 256 295 12,700 -1,600 Descending FlightAware ADS-B
Mon 12:59:02 PM 39.7583 -104.5070 12° North 252 290 12,500 -1,765 Descending FlightAware ADS-B
Mon 12:59:12 PM 39.7709 -104.5070 360° North 251 289 12,200 -1,333 Descending FlightAware ADS-B
Mon 12:59:20 PM 39.7792 -104.5070 360° North 248 285 12,100 -1,400 Descending FlightAware ADS-B
Mon 12:59:42 PM 39.8048 -104.5080 358° North 252 290 11,500 -1,176 Descending FlightAware ADS-B
Mon 01:00:11 PM 39.8389 -104.5110 356° North 256 295 11,100 -462 Descending FlightAware ADS-B
Mon 01:00:34 PM 39.8655 -104.5120 358° North 252 290 11,100  Level FlightAware ADS-B
Mon 01:01:06 PM 39.9033 -104.5130 359° North 254 292 11,100  Level FlightAware ADS-B
Mon 01:01:29 PM 39.9302 -104.5140 358° North 245 282 11,100  Level FlightAware ADS-B
Mon 01:01:51 PM 39.9549 -104.5150 358° North 253 291 11,100  Level FlightAware ADS-B
Mon 01:02:16 PM 39.9846 -104.5160 359° North 251 289 11,100  Level FlightAware ADS-B
Mon 01:02:42 PM 40.0142 -104.5170 359° North 248 285 11,100 -107 Level FlightAware ADS-B
Mon 01:03:12 PM 40.0488 -104.5180 359° North 239 275 11,000 -889 Descending FlightAware ADS-B
Mon 01:03:36 PM 40.0756 -104.5190 358° North 243 280 10,300 -1,778 Descending FlightAware ADS-B
Mon 01:03:39 PM 40.0792 -104.5200 348° North 240 276 10,200 -2,000 Descending FlightAware ADS-B
Mon 01:03:45 PM 40.0853 -104.5220 346° North 236 272 10,000 -2,000 Descending FlightAware ADS-B
Mon 01:03:48 PM 40.0885 -104.5240 334° Northwest 234 269 9,900 -3,000 Descending FlightAware ADS-B
Mon 01:03:51 PM 40.0914 -104.5260 332° Northwest 235 270 9,700 -2,667 Descending FlightAware ADS-B
Mon 01:03:57 PM 40.0959 -104.5310 320° Northwest 236 272 9,500 -2,182 Descending FlightAware ADS-B
Mon 01:04:02 PM 40.0995 -104.5370 308° West 239 275 9,300 -2,000 Descending FlightAware ADS-B
Mon 01:04:06 PM 40.1013 -104.5410 300° West 237 273 9,200 -2,250 Descending FlightAware ADS-B
Mon 01:04:10 PM 40.1028 -104.5470 288° West 237 273 9,000 -2,571 Descending FlightAware ADS-B
Mon 01:04:13 PM 40.1034 -104.5520 279° West 236 272 8,900 -1,714 Descending FlightAware ADS-B
Mon 01:04:17 PM 40.1039 -104.5570 277° West 235 270 8,800 -1,500 Descending FlightAware ADS-B
Mon 01:04:25 PM 40.1038 -104.5690 269° West 233 268 8,600 -1,412 Descending FlightAware ADS-B
Mon 01:04:34 PM 40.1035 -104.5810 268° West 232 267 8,400 -1,286 Descending FlightAware ADS-B
Mon 01:04:39 PM 40.1027 -104.5880 262° West 231 266 8,300 -1,200 Descending FlightAware ADS-B
Mon 01:04:44 PM 40.1009 -104.5950 251° West 230 265 8,200 -1,333 Descending FlightAware ADS-B
Mon 01:04:48 PM 40.0988 -104.6000 241° Southwest 230 265 8,100 -750 Descending FlightAware ADS-B
Mon 01:04:52 PM 40.0963 -104.6040 231° Southwest 228 262 8,100  Level FlightAware ADS-B
Mon 01:04:55 PM 40.0938 -104.6070 223° Southwest 227 261 8,100  Level FlightAware ADS-B
Mon 01:05:00 PM 40.0902 -104.6100 213° Southwest 224 258 8,100  Level FlightAware ADS-B
Mon 01:05:03 PM 40.0871 -104.6130 217° Southwest 221 254 8,100  Level FlightAware ADS-B
Mon 01:05:08 PM 40.0825 -104.6160 207° Southwest 216 249 8,100  Level FlightAware ADS-B
Mon 01:05:18 PM 40.0745 -104.6210 206° Southwest 208 239 8,100  Level FlightAware ADS-B
Mon 01:05:22 PM 40.0709 -104.6240 213° Southwest 204 235 8,100  Level FlightAware ADS-B
Mon 01:05:25 PM 40.0681 -104.6270 219° Southwest 201 231 8,100  Level FlightAware ADS-B
Mon 01:05:31 PM 40.0638 -104.6310 215° Southwest 204 235 8,100  Level FlightAware ADS-B
Mon 01:05:43 PM 40.0548 -104.6400 217° Southwest 200 230 8,100  Level FlightAware ADS-B
Mon 01:05:49 PM 40.0508 -104.6440 217° Southwest 196 226 8,100  Level FlightAware ADS-B
Mon 01:05:53 PM 40.0479 -104.6460 208° Southwest 196 226 8,100  Level FlightAware ADS-B
Mon 01:05:58 PM 40.0435 -104.6490 208° Southwest 197 227 8,100  Level FlightAware ADS-B
Mon 01:06:03 PM 40.0400 -104.6520 213° Southwest 195 224 8,100  Level FlightAware ADS-B
Mon 01:06:11 PM 40.0334 -104.6560 205° Southwest 192 221 8,100  Level FlightAware ADS-B
Mon 01:06:22 PM 40.0245 -104.6610 203° Southwest 193 222 8,100  Level FlightAware ADS-B
Mon 01:06:26 PM 40.0209 -104.6630 203° Southwest 192 221 8,100 -462 Level FlightAware ADS-B
Mon 01:06:35 PM 40.0137 -104.6670 203° Southwest 188 216 8,000 -800 Descending FlightAware ADS-B
Mon 01:06:41 PM 40.0089 -104.6700 206° Southwest 195 224 7,900 -750 Descending FlightAware ADS-B
Mon 01:06:51 PM 40.0010 -104.6740 201° Southwest 190 219 7,800 -857 Descending FlightAware ADS-B
Mon 01:07:02 PM 39.9922 -104.6790 204° Southwest 190 219 7,600 -1,286 Descending FlightAware ADS-B
Mon 01:07:05 PM 39.9890 -104.6810 206° Southwest 187 215 7,500 -667 Descending FlightAware ADS-B
Mon 01:07:11 PM 39.9846 -104.6830 199° South 188 216 7,500 -667 Level FlightAware ADS-B
Mon 01:07:14 PM 39.9818 -104.6840 195° South 187 215 7,400 -1,500 Descending FlightAware ADS-B
Mon 01:07:19 PM 39.9780 -104.6850 191° South 185 213 7,300 -1,333 Descending FlightAware ADS-B
Mon 01:07:23 PM 39.9742 -104.6860 191° South 182 209 7,200 -2,000 Descending FlightAware ADS-B
Mon 01:07:28 PM 39.9706 -104.6860 180° South 183 211 7,000 -2,000 Descending FlightAware ADS-B
Mon 01:07:32 PM 39.9667 -104.6860 180° South 182 209 6,900 -1,667 Descending FlightAware ADS-B
Mon 01:07:46 PM 39.9554 -104.6860 180° South 180 207 6,500 -1,200 Descending FlightAware ADS-B
Mon 01:07:57 PM 39.9461 -104.6860 180° South 172 198 6,400 -545 Descending FlightAware ADS-B
Mon 01:08:08 PM 39.9373 -104.6860 180° South 173 199 6,300 -750 Descending FlightAware ADS-B
Mon 01:08:13 PM 39.9332 -104.6860 180° South 174 200 6,200 -1,091 Descending FlightAware ADS-B
Mon 01:08:19 PM 39.9287 -104.6860 180° South 174 200 6,100 -1,000 Descending FlightAware ADS-B
Mon 01:08:25 PM 39.9235 -104.6860 180° South 170 196 6,000 -1,125 Descending FlightAware ADS-B
Mon 01:08:35 PM 39.9158 -104.6870 186° South 166 191 5,800 -947 Descending FlightAware ADS-B
Mon 01:08:44 PM 39.9095 -104.6870 180° South 159 183 5,700 -545 Descending FlightAware ADS-B
Mon 01:08:57 PM 39.8997 -104.6870 180° South 156 180 5,600 -600 Descending FlightAware ADS-B
Mon 01:09:14 PM 39.8878 -104.6870 180° South 152 175 5,400 -706 Descending FlightAware ADS-B

Login

Don't have an account? Register now (free) for customized features, flight alerts, and more!